Location: Newark
(33.6333°S, 78.8500°W)
Time: 22:22:15
(UTC+00:00)

Tiros 1 - Pass Details

Date: 23 October 2019
Orbit: 630 x 664 km, 48.4° (Epoch: 21 November)

Event Time Altitude Azimuth Distance (km) Brightness Sun altitude
Rises 00:44:06 0° 236° (SW) 2,937 12.3 -14.5°
Reaches altitude 10° 00:46:28 10° 240° (WSW) 2,025 11.1 -15.0°
Maximum altitude 00:51:00 53° 317° (NW) 780 7.6 -15.8°
Enters shadow 00:53:48 22° 25° (NNE) 1,392 8.4 -16.4°
Drops below altitude 10° 00:55:31 10° 33° (NNE) 2,014 - -16.7°
Sets 00:57:52 0° 38° (NE) 2,920 - -17.1°
